Total_Precipitation_Accumulation
0.00 0.00 0.00 0.01 0.04 0.05 0.07 0.16 0.20 0.23 0.21 0.21 0.22 0.33 0.23 0.27 0.29 0.23 0.16 0.31 0.45 0.52 0.70 0.52 0.34 0.35 0.32 0.41 0.50 0.49 0.44 0.41 0.24 0.12 0.08 0.08 0.08 0.10 0.11 0.11 0.08 0.05 0.06
0.00 0.00 0.00 0.00 0.01 0.03 0.11 0.17 0.20 0.20 0.29 0.41 0.40 0.42 0.39 0.31 0.32 0.28 0.23 0.20 0.40 0.65 0.88 0.84 0.52 0.47 0.45 0.46 0.49 0.44 0.38 0.40 0.47 0.35 0.24 0.18 0.13 0.11 0.12 0.13 0.12 0.12 0.10
0.00 0.00 0.00 0.01 0.01 0.01 0.01 0.06 0.10 0.14 0.22 0.44 0.54 0.60 0.66 0.47 0.34 0.27 0.29 0.48 0.44 0.47 0.68 0.87 0.73 0.58 0.51 0.59 0.58 0.41 0.34 0.32 0.35 0.41 0.35 0.29 0.28 0.22 0.16 0.17 0.19 0.12 0.09
0.00 0.00 0.01 0.02 0.01 0.01 0.02 0.04 0.05 0.06 0.08 0.18 0.41 0.53 0.80 0.82 0.75 0.57 0.54 0.43 0.59 0.48 0.42 0.41 0.55 0.61 0.40 0.36 0.39 0.45 0.48 0.39 0.28 0.35 0.36 0.35 0.28 0.28 0.45 0.38 0.22 0.16 0.12
0.00 0.00 0.03 0.08 0.07 0.11 0.12 0.25 0.26 0.17 0.19 0.20 0.20 0.28 0.58 0.95 0.59 0.45 0.33 0.53 0.56 0.57 0.55 0.54 0.42 0.56 0.53 0.38 0.38 0.27 0.29 0.41 0.42 0.31 0.32 0.33 0.35 0.38 0.43 0.34 0.29 0.27 0.27
0.01 0.02 0.01 0.01 0.03 0.06 0.09 0.17 0.26 0.28 0.43 0.41 0.50 0.33 0.26 0.49 0.71 0.47 0.47 0.39 0.56 0.64 0.57 0.43 0.65 0.80 0.42 0.32 0.36 0.40 0.43 0.41 0.36 0.44 0.40 0.33 0.25 0.25 0.25 0.25 0.24 0.33 0.41
0.01 0.03 0.02 0.02 0.03 0.10 0.11 0.08 0.12 0.22 0.22 0.43 0.45 0.45 0.38 0.35 0.68 0.51 0.60 0.74 0.60 0.46 0.57 0.55 0.37 0.59 0.71 0.55 0.42 0.44 0.55 0.58 0.50 0.43 0.43 0.51 0.45 0.40 0.35 0.28 0.26 0.28 0.28
0.03 0.04 0.05 0.06 0.08 0.13 0.16 0.15 0.13 0.11 0.12 0.18 0.35 0.45 0.39 0.44 0.44 0.72 0.76 0.76 0.72 0.53 0.50 0.55 0.56 0.52 0.67 0.57 0.45 0.41 0.43 0.57 0.74 0.77 0.62 0.47 0.56 0.59 0.40 0.42 0.54 0.61 0.57
0.03 0.07 0.10 0.12 0.13 0.11 0.12 0.12 0.13 0.08 0.08 0.19 0.22 0.22 0.36 0.49 0.62 0.66 0.74 0.69 0.89 0.77 0.57 0.57 0.49 0.53 0.64 0.76 0.67 0.73 0.59 0.49 0.69 0.80 0.89 0.94 0.90 1.08 0.81 0.69 0.82 0.74 0.76
0.02 0.05 0.07 0.06 0.09 0.11 0.12 0.12 0.11 0.10 0.16 0.16 0.20 0.32 0.48 0.60 0.73 0.77 0.86 0.74 0.61 0.76 0.68 0.62 0.75 0.72 0.67 0.63 0.63 0.65 0.81 0.76 0.65 0.75 0.76 0.74 0.88 1.11 1.19 0.96 0.91 0.85 0.76
0.00 0.00 0.00 0.00 0.01 0.02 0.02 0.04 0.06 0.08 0.09 0.11 0.14 0.23 0.35 0.53 0.77 0.94 0.86 0.83 0.87 0.66 0.62 0.68 0.71 0.75 0.80 0.83 0.78 0.75 0.87 0.88 0.84 0.70 0.79 0.82 0.78 0.74 0.84 1.03 1.16 1.18 1.06
0.00 0.00 0.00 0.00 0.00 0.00 0.00 0.00 0.01 0.02 0.04 0.08 0.12 0.19 0.30 0.43 0.59 0.71 0.84 0.91 0.85 0.77 0.78 0.67 0.71 0.66 0.62 0.67 0.74 0.82 0.72 0.63 0.60 0.65 0.66 0.68 0.73 0.78 0.76 0.78 0.82 0.94 1.11
0.00 0.00 0.00 0.00 0.00 0.00 0.00 0.00 0.00 0.00 0.00 0.03 0.06 0.11 0.17 0.25 0.34 0.44 0.52 0.60 0.64 0.66 0.74 0.80 0.73 0.59 0.53 0.57 0.61 0.60 0.56 0.50 0.52 0.55 0.61 0.67 0.71 0.78 0.78 0.72 0.71 0.72 0.77
0.00 0.00 0.00 0.00 0.00 0.00 0.00 0.00 0.00 0.00 0.00 0.01 0.01 0.03 0.05 0.09 0.13 0.20 0.25 0.30 0.37 0.41 0.44 0.47 0.49 0.51 0.55 0.61 0.60 0.54 0.51 0.56 0.59 0.62 0.63 0.64 0.63 0.63 0.66 0.72 0.71 0.73 0.72
0.00 0.00 0.00 0.00 0.00 0.00 0.01 0.02 0.01 0.00 0.00 0.02 0.03 0.02 0.01 0.02 0.04 0.04 0.07 0.09 0.12 0.16 0.20 0.21 0.21 0.24 0.27 0.32 0.37 0.45 0.50 0.53 0.51 0.54 0.56 0.59 0.60 0.58 0.60 0.65 0.69 0.65 0.66
0.00 0.00 0.00 0.00 0.00 0.00 0.00 0.00 0.01 0.00 0.00 0.00 0.01 0.01 0.01 0.00 0.00 0.00 0.00 0.00 0.02 0.03 0.04 0.06 0.09 0.10 0.13 0.16 0.19 0.23 0.25 0.30 0.36 0.38 0.40 0.40 0.43 0.49 0.54 0.58 0.64 0.69 0.71
0.00 0.00 0.00 0.00 0.00 0.00 0.00 0.00 0.00 0.01 0.00 0.00 0.00 0.00 0.01 0.00 0.00 0.00 0.00 0.00 0.00 0.00 0.00 0.01 0.02 0.03 0.04 0.05 0.07 0.08 0.11 0.14 0.15 0.17 0.22 0.25 0.27 0.29 0.32 0.37 0.45 0.50 0.57
0.00 0.00 0.00 0.00 0.00 0.00 0.00 0.00 0.00 0.01 0.01 0.01 0.01 0.00 0.00 0.00 0.00 0.00 0.00 0.00 0.00 0.00 0.00 0.00 0.01 0.01 0.01 0.01 0.01 0.02 0.03 0.03 0.04 0.05 0.07 0.09 0.11 0.14 0.17 0.19 0.24 0.29 0.34
0.00 0.00 0.00 0.00 0.00 0.00 0.00 0.00 0.00 0.00 0.01 0.01 0.00 0.00 0.00 0.00 0.00 0.00 0.00 0.00 0.00 0.01 0.01 0.00 0.00 0.00 0.00 0.00 0.01 0.01 0.01 0.01 0.01 0.01 0.01 0.02 0.03 0.03 0.06 0.09 0.12 0.16 0.19
0.00 0.00 0.00 0.00 0.00 0.00 0.00 0.00 0.00 0.00 0.00 0.01 0.01 0.01 0.00 0.00 0.01 0.01 0.00 0.00 0.01 0.01 0.01 0.01 0.00 0.00 0.00 0.00 0.01 0.01 0.00 0.00 0.01 0.01 0.01 0.01 0.02 0.01 0.01 0.02 0.04 0.06 0.09
0.00 0.00 0.00 0.00 0.00 0.00 0.00 0.00 0.00 0.00 0.00 0.00 0.02 0.01 0.00 0.00 0.01 0.00 0.00 0.01 0.01 0.01 0.01 0.02 0.01 0.01 0.01 0.00 0.00 0.01 0.00 0.00 0.01 0.01 0.01 0.01 0.02 0.02 0.01 0.01 0.01 0.00 0.01
0.00 0.00 0.00 0.00 0.00 0.00 0.00 0.00 0.00 0.00 0.00 0.00 0.01 0.01 0.00 0.01 0.01 0.00 0.00 0.01 0.01 0.01 0.01 0.02 0.02 0.01 0.01 0.02 0.02 0.02 0.01 0.01 0.01 0.02 0.01 0.01 0.01 0.01 0.01 0.01 0.01 0.01 0.01
0.00 0.00 0.00 0.00 0.00 0.00 0.00 0.00 0.00 0.00 0.00 0.01 0.01 0.02 0.01 0.02 0.02 0.01 0.01 0.01 0.01 0.01 0.01 0.01 0.01 0.01 0.00 0.01 0.01 0.02 0.02 0.02 0.02 0.03 0.03 0.02 0.01 0.02 0.01 0.01 0.01 0.01 0.01
0.00 0.00 0.00 0.00 0.00 0.00 0.00 0.01 0.01 0.00 0.00 0.01 0.02 0.02 0.02 0.02 0.02 0.03 0.02 0.01 0.00 0.01 0.01 0.01 0.01 0.00 0.00 0.01 0.01 0.01 0.01 0.01 0.01 0.02 0.02 0.02 0.02 0.01 0.01 0.01 0.01 0.01 0.01
0.00 0.00 0.00 0.00 0.00 0.00 0.00 0.00 0.00 0.01 0.01 0.01 0.02 0.02 0.02 0.02 0.02 0.02 0.04 0.02 0.01 0.01 0.01 0.00 0.00 0.00 0.00 0.00 0.00 0.00 0.00 0.00 0.01 0.01 0.01 0.01 0.02 0.01 0.01 0.01 0.01 0.01 0.01
0.01 0.00 0.00 0.01 0.01 0.01 0.01 0.01 0.01 0.01 0.01 0.01 0.02 0.03 0.03 0.02 0.02 0.02 0.03 0.04 0.02 0.01 0.00 0.00 0.00 0.00 0.00 0.01 0.00 0.00 0.00 0.01 0.01 0.01 0.01 0.01 0.01 0.01 0.01 0.01 0.01 0.01 0.01